Preview of NWS' New Version of Forecast
This preview is not operational and should not be used for support decisions.

Regional Weather Roundup (RWR)

Issued by National Weather Service (NWS)

                            
000
ASCA42 TJSJ 222310
RWRPR 
PUERTO RICO/U.S. VIRGIN ISLANDS HOURLY WEATHER ROUNDUP
NATIONAL WEATHER SERVICE SAN JUAN PR
700 PM AST MON JUL 22 2019

PRZ001>002-007>008-010-230000-
PUERTO RICO
  
CITY           SKY/WX    TMP DP  RH WIND       PRES   REMARKS
SAN JUAN LMM   PTCLDY    84  75  74 E13       30.01R HX  92           
AGUADILLA      CLOUDY    81  75  83 E8        30.02R                  
CEIBA          CLEAR     84  73  70 E9        30.02R HX  91           
$$

VIZ001>002-230000-
U.S. VIRGIN ISLANDS
  
CITY           SKY/WX    TMP DP  RH WIND       PRES   REMARKS
CHARLOTTE AMA  PTCLDY    84  73  70 E12       30.00S HX  91           
CHRISTIANSTED  PTCLDY    82  73  74 E14       30.01R                  
$$

HOURLY WEATHER ROUNDUP FOR THE NEWS MEDIA
  
CITY           SKY/WX    TMP DP  RH WIND       PRES   REMARKS
ORLANDO        FAIR      86  72  62 SE15G23   29.96S HX  92           
NEW YORK       TSTM      75  75 100 N24       29.69  VSB 1/2          
NEWARK         TSTM      74  72  93 N10       29.76R FOG              
CHICAGO        FAIR      73  51  46 NE18      30.07S                  
HARTFORD       PTSUNNY   76  69  79 NE12      29.78F                  
BOSTON         CLOUDY    73  63  70 NE14      29.82F                  
DALLAS         PTSUNNY   94  69  44 N9G18     29.96S HX  99           
PHILADELPHIA   PTSUNNY   75  70  84 W7        29.73                   
LOS ANGELES    MOSUNNY   74  62  66 W14       29.95F                  
WASHINGTON DC  PTSUNNY   83  72  69 VRB3      29.78S